Wind_Gust
19 23 25 25 25 23 22 24 24 27 19 14 18 15 18 19 22 14 12 13 10 17 19 19 19 22 21 20 20 21 20 19 20 21 23 25 25 25 25 24 22 21 21 18 19 23 24 22 23 20 20 22 22 21 20 22 22 22 24 23 23 24 23 21 22 20 18 18 15 13 19 19 19 18 17 16 17 16 17 17 18 17 15 14 15 15
20 24 24 22 21 20 19 22 22 19 11 18 20 20 24 23 24 23 16 14 14 15 19 18 20 19 19 20 22 23 22 21 22 24 23 26 27 25 24 23 26 24 21 19 19 19 21 23 20 18 20 21 24 23 22 24 23 22 21 24 24 24 23 25 20 17 18 18 17 17 21 21 20 20 18 14 15 15 16 13 14 14 14 14 14 14
22 26 23 21 21 11 11 11 12 14 16 18 23 22 24 26 25 17 18 13 14 17 23 22 21 21 19 20 22 24 26 22 22 23 23 26 27 27 26 25 25 24 24 23 21 20 22 21 21 20 20 23 24 24 23 24 24 23 23 23 24 24 23 22 21 19 20 18 18 18 19 20 23 19 13 11 15 16 15 14 13 13 13 14 15 14
22 25 25 21 14 13 16 13 14 16 17 20 22 25 26 23 24 28 17 13 15 20 19 15 22 22 21 22 26 24 27 26 24 26 26 25 27 28 28 26 25 26 26 26 24 24 25 24 22 21 21 22 23 23 23 26 25 26 25 25 26 25 24 26 26 20 19 19 18 14 12 14 19 15 9 12 12 15 12 16 14 14 13 14 14 16
23 15 14 20 14 16 17 16 17 19 21 21 23 25 25 24 25 23 17 18 11 16 18 23 27 30 26 29 32 29 28 27 26 26 27 28 27 27 27 26 25 24 23 25 22 22 23 25 24 22 21 21 24 25 25 24 25 23 24 25 26 25 26 26 23 22 20 20 20 16 16 17 22 18 12 14 13 15 9 13 15 14 15 15 15 14
27 16 11 11 15 18 19 20 21 19 22 21 21 24 24 21 26 16 18 23 26 25 26 25 32 31 25 31 34 31 33 30 28 27 27 28 26 26 27 26 27 26 22 24 24 24 24 25 24 24 22 23 23 26 22 22 22 21 21 22 26 28 25 26 25 24 20 20 20 19 19 20 18 18 17 17 18 16 11 17 14 14 16 15 14 15
24 22 17 18 16 18 20 22 19 20 23 21 21 24 25 25 21 21 23 22 24 26 20 17 26 28 23 24 18 20 21 22 24 27 28 28 28 28 27 27 29 29 26 23 24 25 24 22 25 26 26 27 26 22 20 22 22 26 25 23 26 27 29 27 26 26 24 21 21 20 20 21 19 18 17 13 11 11 13 13 15 15 14 15 15 14
22 14 14 15 18 20 20 24 20 19 24 26 11 11 14 17 21 20 22 23 25 24 15 18 25 28 27 23 17 18 20 20 23 24 24 26 25 23 23 24 25 29 27 23 25 23 21 22 23 25 26 24 24 22 22 25 24 24 18 22 24 23 24 24 25 26 25 25 23 21 19 19 16 16 16 18 13 8 10 17 18 15 15 15 15 14
22 21 16 18 18 23 24 19 16 21 25 22 13 13 14 18 19 19 20 22 24 22 30 25 24 33 31 26 25 18 21 21 21 21 21 14 16 19 19 22 21 23 22 24 24 21 20 19 21 22 24 21 21 23 22 21 21 16 11 11 18 20 21 22 24 25 24 21 19 17 18 18 16 14 12 10 9 14 21 22 23 17 16 15 13 15
22 19 19 20 21 23 18 17 15 18 22 21 15 12 16 14 16 19 23 25 23 25 26 27 23 32 28 22 24 16 20 22 24 17 15 14 11 18 22 24 27 26 19 25 24 23 22 20 21 23 21 22 22 20 20 17 11 19 13 14 19 19 18 18 18 21 21 20 21 16 14 16 17 13 12 10 13 19 21 23 21 13 13 14 13 12
17 12 13 18 24 20 18 21 23 21 21 12 11 17 21 23 23 22 23 25 24 28 30 25 26 27 31 21 19 21 11 14 12 23 16 15 16 17 21 22 26 30 29 23 25 24 23 23 20 22 21 21 20 17 17 22 20 27 22 19 17 18 18 16 17 16 17 19 22 21 18 16 17 16 13 16 17 23 22 23 16 14 14 13 14 13
22 17 19 23 18 18 14 16 14 15 18 20 23 23 22 24 22 21 22 21 26 30 24 26 28 24 32 20 19 21 16 16 15 14 16 15 17 14 16 20 25 27 17 17 18 20 20 21 21 21 20 19 19 21 24 24 22 23 27 28 22 20 15 19 19 19 21 21 20 20 17 17 19 18 15 18 23 25 22 18 16 16 16 15 14 12
26 24 17 19 18 20 20 21 22 20 20 23 23 23 25 23 21 26 25 28 30 29 21 18 16 21 26 25 18 17 15 15 15 14 13 9 11 13 16 12 15 15 17 19 18 19 20 21 21 19 20 20 21 23 25 23 22 21 23 26 28 25 22 21 20 20 25 24 18 18 17 17 17 17 16 23 21 20 19 18 18 18 17 16 15 14
27 22 23 22 21 25 22 26 24 24 26 26 27 25 27 27 25 20 23 22 27 24 23 16 15 26 18 15 14 15 13 13 15 14 12 11 10 11 12 11 12 12 16 17 17 17 18 19 19 19 21 20 23 25 24 22 21 22 22 24 26 26 23 21 24 25 24 25 23 19 21 18 16 15 16 19 19 19 19 18 17 17 16 16 15 15
22 27 31 26 29 25 29 27 22 18 24 28 22 27 24 25 27 22 24 24 22 21 18 18 18 27 24 15 17 15 13 13 14 13 12 12 12 12 12 10 10 12 15 18 19 18 17 17 18 19 19 20 22 23 22 23 24 23 21 24 24 25 24 24 23 25 25 26 25 23 22 19 18 17 16 20 22 19 18 17 17 17 17 16 16 17
25 23 16 28 18 23 27 26 26 22 21 24 26 24 27 25 18 26 11 17 17 18 16 20 24 14 17 22 18 13 15 16 12 15 12 13 12 11 13 12 12 12 15 15 14 13 13 14 16 19 19 19 20 23 23 24 25 24 23 22 26 26 24 23 22 22 24 25 25 23 23 23 19 16 15 20 20 18 16 17 17 16 15 16 16 15
23 26 12 18 20 20 24 24 28 25 26 18 26 30 26 16 21 19 18 21 8 18 24 14 23 25 18 21 15 14 16 16 12 19 15 14 14 14 13 14 13 13 12 10 10 11 13 14 15 16 16 19 20 21 21 22 24 23 21 21 25 26 26 25 25 26 25 26 26 25 24 24 19 17 14 16 17 15 15 16 16 16 15 15 15 17
19 15 13 18 23 22 21 21 24 27 28 19 24 21 18 18 19 19 22 13 18 26 24 23 24 22 22 17 16 15 14 14 18 15 14 17 20 19 19 18 14 11 9 9 9 9 13 14 15 16 15 16 18 20 20 20 20 21 21 23 27 28 29 29 29 28 27 26 28 27 27 25 21 18 16 17 19 18 18 16 16 16 17 16 16 17
21 23 20 23 21 20 19 16 21 23 25 29 21 11 25 22 21 23 20 22 21 21 24 23 22 25 23 14 14 16 13 14 16 16 17 19 18 16 16 17 18 17 15 12 10 10 13 13 14 13 15 18 17 16 17 17 18 21 22 24 25 29 31 31 32 29 27 25 25 28 25 24 23 19 16 20 22 19 19 19 18 18 17 17 16 17
14 20 20 18 22 21 22 25 26 25 25 27 24 21 19 23 18 17 24 22 26 23 20 21 23 15 19 14 16 14 14 13 13 14 18 16 16 14 15 15 16 16 17 16 17 12 10 11 13 14 15 17 17 17 17 17 20 21 22 23 26 28 29 29 29 28 26 24 23 23 21 22 23 23 27 26 22 21 20 20 20 19 17 16 17 16
18 15 22 17 19 19 27 29 27 22 23 28 30 28 27 29 16 19 17 22 23 22 22 21 22 20 14 15 14 13 13 14 15 16 16 15 13 15 15 15 15 16 17 18 18 19 14 10 10 14 16 16 16 16 16 16 19 21 20 22 29 32 32 31 29 29 28 24 23 22 21 21 19 20 25 24 22 20 20 18 18 18 17 17 17 18
18 19 20 19 24 29 23 24 20 22 23 25 28 28 28 25 27 25 24 25 33 32 25 23 15 19 18 16 15 15 16 14 13 14 16 12 12 12 13 14 16 17 17 17 19 16 18 14 13 13 15 15 16 15 16 20 22 22 23 26 29 30 33 30 28 29 26 23 20 20 21 17 12 20 23 22 21 20 21 20 19 17 18 16 17 17
16 15 20 20 26 25 24 13 12 16 16 20 20 25 27 27 26 27 25 22 26 32 25 26 20 14 11 13 15 15 13 16 15 14 15 13 11 13 13 14 15 16 17 17 18 17 18 17 18 17 15 16 15 16 18 20 22 24 24 26 26 30 29 28 27 25 23 20 17 19 17 16 20 26 24 24 21 20 21 21 19 19 18 17 17 16
7 21 21 27 23 27 25 20 22 19 20 22 24 23 20 23 22 24 25 20 25 18 25 25 23 16 14 14 14 13 15 15 16 15 15 14 12 13 12 12 13 12 12 14 16 16 15 15 17 20 21 21 17 16 19 21 23 22 23 24 22 24 25 21 22 21 20 17 18 15 17 28 28 25 24 24 22 21 20 21 21 19 18 19 18 19
19 17 23 20 25 25 25 23 27 23 24 26 22 18 22 24 20 20 21 17 20 18 22 23 20 13 15 11 16 15 15 16 15 15 15 15 15 15 15 14 13 13 14 14 14 14 15 18 20 20 20 20 22 21 20 19 17 19 17 17 18 19 21 20 16 19 21 18 15 19 24 22 23 26 24 23 24 22 22 20 20 19 19 18 18 18
16 13 16 22 22 21 22 27 22 16 17 21 17 18 18 24 23 22 23 26 26 20 24 26 17 16 16 14 14 13 16 17 15 14 15 17 16 18 16 16 16 17 18 18 17 18 19 18 19 19 18 18 20 20 20 19 16 16 18 18 10 18 20 25 28 28 24 25 24 16 15 13 16 21 23 23 22 22 22 21 19 19 17 18 18 17
12 12 16 21 21 21 16 16 13 13 20 18 17 26 21 17 17 16 21 20 24 16 19 18 24 13 15 11 14 16 17 16 14 15 16 16 16 16 16 16 17 18 18 19 19 19 19 21 23 21 20 20 20 19 17 17 22 17 10 15 21 22 19 19 25 33 32 29 26 20 24 23 19 12 15 20 20 20 21 20 19 20 19 18 17 17
16 18 18 19 20 22 15 12 19 16 18 20 16 16 16 16 17 15 16 23 19 19 19 21 17 19 12 13 13 13 14 14 14 14 15 16 16 15 14 14 13 18 19 20 20 21 21 21 22 23 23 23 22 20 20 18 18 11 14 17 18 21 18 22 25 32 31 30 27 26 26 21 19 14 14 18 19 20 21 21 20 20 18 17 17 16
15 16 14 18 19 23 12 11 12 12 11 11 13 13 16 16 15 13 12 13 13 15 19 14 12 17 16 15 16 17 14 14 15 15 14 14 14 14 15 16 18 19 19 20 21 21 21 22 21 23 24 24 24 23 21 21 22 22 16 14 20 21 23 22 27 26 26 28 28 23 21 18 14 15 16 19 21 20 21 21 19 18 17 16 16 14
14 17 6 11 19 21 18 11 11 11 11 12 12 14 15 15 14 15 14 16 15 13 12 19 18 19 14 14 14 14 13 14 15 14 15 17 17 16 17 18 19 19 20 20 20 20 21 21 21 23 23 25 25 25 25 22 21 20 19 21 14 19 20 24 25 26 24 26 22 21 20 21 15 14 15 17 19 20 19 19 17 17 17 16 15 14
18 10 12 11 16 20 13 9 10 10 10 11 12 14 15 17 13 18 17 22 21 11 13 16 18 14 11 10 12 12 11 14 15 17 18 17 17 18 18 20 20 20 20 20 21 21 21 22 23 24 26 26 25 25 25 22 18 17 18 18 20 19 17 22 25 25 27 23 23 23 20 21 19 17 16 16 19 17 19 17 16 16 16 15 15 14
14 15 14 15 17 12 13 10 10 9 10 11 16 15 18 18 15 17 16 18 20 18 15 13 11 10 13 12 13 13 15 17 18 19 19 19 18 18 19 19 20 20 21 21 21 22 22 23 25 26 27 26 24 24 24 22 18 18 14 15 20 19 21 24 20 22 23 25 25 25 24 22 20 18 17 16 17 18 19 19 18 16 13 13 12 12
12 16 17 17 21 14 15 13 12 13 11 14 16 16 15 13 13 12 15 18 20 20 15 11 15 15 15 13 14 15 17 18 18 19 18 18 18 19 19 19 20 21 22 22 22 22 22 23 24 25 24 22 23 24 24 20 17 17 17 18 19 21 25 24 23 24 24 24 25 23 23 20 19 19 17 16 16 17 18 19 18 18 17 15 11 8
13 13 16 18 23 9 18 14 13 14 16 11 10 11 11 12 14 13 14 17 18 20 15 15 16 16 14 13 14 15 17 19 19 20 19 17 17 18 19 19 20 21 21 22 22 23 23 24 25 26 24 22 18 18 18 19 16 16 16 19 20 22 22 24 26 26 24 24 22 22 21 21 21 21 18 15 16 17 18 18 16 14 13 14 15 16
12 13 16 16 19 14 15 15 13 14 11 11 11 17 12 10 11 11 15 18 19 19 18 16 17 18 17 16 17 18 19 20 21 21 21 20 17 17 17 19 20 20 21 21 23 24 25 24 24 25 24 21 19 16 15 19 19 18 21 23 26 25 26 25 27 27 26 25 21 21 22 21 22 19 18 16 16 17 17 15 14 14 10 11 12 12
12 16 16 20 22 14 14 15 11 11 10 13 10 17 16 8 15 9 12 19 20 17 14 15 15 14 16 17 17 17 19 19 23 24 22 20 20 18 18 19 18 20 21 20 21 22 24 24 25 24 22 16 18 18 19 17 16 18 20 21 26 26 26 26 27 27 26 26 23 21 21 21 21 20 19 16 14 17 16 14 13 11 10 12 12 12
15 18 13 16 17 20 12 10 14 16 17 16 9 17 21 13 14 11 6 15 20 18 15 12 13 13 14 15 16 16 16 16 22 24 20 21 20 19 20 19 18 19 18 19 19 20 19 19 21 21 21 21 20 19 19 17 16 18 22 24 23 22 22 25 28 24 24 25 23 21 20 18 18 18 17 15 16 15 14 13 13 11 9 11 10 11
13 11 13 14 13 16 13 16 19 16 13 14 12 12 11 10 8 7 8 10 19 18 14 11 12 7 9 15 16 15 11 15 20 18 19 18 18 16 18 18 18 18 18 17 17 18 18 19 21 22 22 20 19 17 15 15 16 19 23 23 22 23 23 24 24 22 20 19 17 16 16 17 18 16 14 15 15 13 13 11 11 11 9 11 11 11
15 15 17 17 16 15 17 12 12 10 12 12 16 14 12 11 7 8 9 10 18 17 14 9 11 14 13 12 11 10 9 13 14 12 14 15 14 15 16 17 16 16 16 16 17 17 18 19 21 22 23 23 24 23 18 17 16 19 22 23 22 22 22 21 20 19 18 17 15 15 16 17 18 18 15 14 14 12 12 12 11 11 12 12 10 10
13 14 14 20 17 15 12 13 14 17 15 16 16 16 15 10 8 9 10 11 15 16 15 10 11 13 12 9 10 16 12 16 13 9 12 12 14 15 17 16 16 16 16 16 16 17 18 19 21 23 24 24 22 21 20 17 19 19 20 21 20 21 20 18 16 15 15 16 16 16 17 17 17 16 15 15 13 13 13 11 12 11 10 9 9 8
7 9 13 15 14 11 12 19 21 17 14 20 17 15 11 7 9 8 10 11 11 12 13 13 14 13 12 13 11 15 13 17 13 7 13 13 16 17 17 17 17 17 18 18 18 14 19 20 21 21 20 20 20 20 20 19 19 21 20 19 21 20 17 15 16 17 17 17 18 18 17 16 17 16 14 13 12 11 12 12 11 10 9 9 8 7
12 13 6 9 6 9 8 15 20 17 11 22 21 13 11 9 7 11 10 8 11 13 12 14 15 16 19 19 17 18 14 12 11 12 16 16 17 16 16 17 18 17 17 17 18 18 20 21 20 20 20 19 20 19 18 18 19 18 18 19 19 17 15 15 16 16 16 18 19 18 17 16 14 14 13 12 12 12 12 10 9 8 8 8 9 8
15 15 10 13 17 12 12 17 14 12 17 26 24 12 22 9 10 9 14 16 15 14 16 17 19 18 21 21 16 16 14 14 14 15 15 15 15 15 15 15 15 16 16 16 17 18 18 19 21 22 19 19 18 17 16 16 17 18 18 20 18 17 16 15 15 17 17 18 18 17 17 15 14 14 13 13 11 11 10 9 11 9 8 8 10 10
16 7 11 12 13 14 20 18 14 12 16 18 20 16 16 16 11 11 12 15 13 14 14 16 19 19 18 20 19 20 18 18 16 16 16 16 15 15 14 13 12 12 13 14 14 14 15 18 19 20 18 17 16 16 16 16 17 17 18 18 16 14 13 13 13 14 14 14 14 14 14 15 15 14 12 11 10 10 9 8 8 9 7 6 6 8
17 17 15 20 19 19 18 15 8 7 12 15 18 19 18 17 17 17 18 16 16 17 17 20 20 18 19 19 18 17 16 13 13 12 12 14 14 12 13 12 12 12 12 12 12 12 14 17 16 17 16 17 18 18 17 16 17 16 17 15 14 16 16 16 15 15 14 14 13 12 13 13 13 12 10 9 9 9 10 9 7 9 8 7 8 8
12 21 19 32 35 29 26 16 16 18 19 21 19 18 18 17 17 16 18 22 20 21 19 22 19 19 18 16 17 15 13 12 13 13 14 14 15 14 13 13 13 12 13 12 11 11 12 14 14 15 16 16 17 18 18 18 17 18 16 16 16 15 15 14 15 15 15 15 15 14 13 10 11 12 11 9 10 10 10 9 10 9 9 9 9 9
9 10 18 21 16 14 20 14 21 23 23 24 26 24 22 21 21 21 22 23 22 21 20 18 19 17 16 14 16 14 13 11 12 13 13 14 13 12 13 12 11 12 11 12 10 9 12 12 13 14 14 15 14 15 15 16 17 16 15 16 16 16 16 16 14 14 14 14 13 13 14 15 15 12 13 12 12 13 13 13 11 12 13 13 11 10
21 17 28 23 23 24 22 20 21 21 20 19 22 24 23 22 22 21 22 22 22 20 19 18 17 17 15 15 13 12 13 13 13 14 15 14 14 14 14 13 12 11 12 13 12 12 12 13 14 14 14 15 14 14 14 15 16 16 15 15 16 16 16 16 17 16 16 15 15 16 14 14 4 10 13 14 15 16 15 15 14 15 16 17 17 16
16 12 20 19 30 29 25 23 24 23 22 21 21 22 24 23 23 22 22 22 21 21 20 18 17 18 17 16 15 16 16 14 14 14 14 15 15 15 15 13 11 11 10 11 11 13 16 14 15 14 14 14 14 14 15 15 15 15 13 14 15 14 14 14 13 15 17 18 18 17 15 14 14 14 12 13 15 18 18 17 16 15 16 18 18 17
23 29 24 19 22 20 20 19 14 20 21 22 21 22 22 22 22 23 22 22 21 21 21 21 19 16 16 15 15 15 15 14 13 13 13 12 12 9 8 8 10 11 10 10 10 10 11 11 11 12 14 14 14 14 15 15 15 15 16 15 15 14 14 13 13 13 14 16 17 18 16 15 15 14 13 13 11 17 17 8 9 12 16 15 11 11
19 11 12 17 15 18 16 16 17 22 22 20 19 18 18 17 18 19 20 19 19 19 18 18 18 17 16 15 14 15 14 14 13 12 12 12 12 9 9 7 8 9 9 8 7 8 9 9 8 9 11 12 13 13 14 14 15 14 14 16 15 15 15 15 13 14 14 15 15 15 16 13 14 14 14 12 12 11 12 17 15 9 11 10 8 7
Wind_Speed
8 9 10 10 10 11 13 14 14 16 9 7 8 6 6 7 10 4 1 5 3 7 9 9 10 11 11 10 9 12 11 10 11 11 11 12 13 13 13 13 11 11 10 9 9 12 11 12 11 10 10 11 12 11 11 11 10 12 13 12 13 12 12 9 10 9 8 9 6 5 4 7 7 8 7 4 4 5 6 9 9 8 5 6 7 7
9 10 11 12 12 11 11 13 13 12 5 9 9 9 10 10 9 12 7 6 5 6 8 9 11 10 10 10 12 12 12 11 12 14 13 15 16 14 14 14 14 12 10 10 9 12 14 12 11 9 9 12 13 12 13 13 12 12 12 14 13 12 12 11 10 9 8 7 7 6 6 7 6 6 4 4 5 6 4 1 6 6 5 7 6 6
8 11 11 11 12 5 4 4 5 5 7 8 10 9 10 11 9 9 9 5 4 6 9 12 11 10 10 10 12 13 15 11 11 13 13 14 16 15 14 13 13 13 12 12 12 12 10 10 12 9 9 12 13 13 14 13 13 12 11 12 11 11 12 11 11 9 9 9 8 5 5 7 6 3 3 2 5 5 3 4 4 6 6 7 6 6
9 10 15 12 6 5 8 5 6 8 7 8 10 11 11 10 11 11 8 4 7 6 8 6 9 9 11 11 14 14 14 14 14 15 16 14 15 17 15 14 14 14 13 14 14 12 12 14 12 12 11 12 13 13 14 14 13 11 10 11 11 11 12 13 13 10 9 10 7 3 2 6 4 3 2 3 2 2 3 2 5 6 5 6 6 8
10 2 3 11 6 7 8 8 8 8 8 10 12 11 10 13 13 10 5 8 5 8 9 12 12 12 12 14 14 16 16 16 14 15 16 16 15 15 16 16 15 14 15 14 13 10 9 10 13 13 12 12 13 14 14 12 13 9 12 12 13 12 13 13 13 11 10 9 9 6 2 6 6 3 5 3 2 4 2 5 6 5 6 6 6 6
14 3 3 2 5 8 10 9 11 9 9 9 12 14 14 12 15 9 7 11 10 10 12 13 11 12 12 17 18 15 15 16 15 16 16 16 15 14 15 16 16 15 13 13 14 15 15 15 13 13 13 13 13 13 12 13 12 12 12 12 9 9 12 13 15 14 9 9 9 8 9 7 8 6 7 8 8 7 4 4 4 5 5 7 6 7
10 10 8 10 8 9 11 11 10 11 9 9 8 14 16 15 12 12 13 10 9 10 5 7 10 8 9 12 9 9 11 12 12 14 16 16 15 15 14 15 16 16 14 11 9 9 10 11 13 15 14 15 15 13 12 11 12 11 10 8 8 7 10 11 13 11 8 10 10 11 11 10 10 9 7 6 5 4 3 2 4 5 7 7 7 7
10 4 4 7 9 9 9 11 10 9 10 9 5 3 5 8 11 12 12 11 10 12 5 6 9 10 10 10 7 9 12 9 11 13 14 14 15 14 14 13 14 16 16 12 15 11 11 11 14 15 16 13 12 13 12 10 5 6 4 5 6 9 9 12 10 12 10 13 12 9 9 8 8 7 8 8 5 3 3 2 5 6 6 7 7 7
13 10 7 9 9 9 10 9 8 12 9 8 3 4 6 9 10 10 9 9 11 10 12 10 13 12 11 11 14 9 11 11 12 11 12 6 6 9 10 11 11 13 13 11 10 12 11 11 12 13 13 12 11 11 12 11 9 8 4 4 7 7 10 8 12 12 11 10 9 8 8 6 5 5 6 5 4 2 3 3 7 9 7 7 6 6
7 10 10 11 9 9 8 7 6 9 10 11 7 4 7 5 7 9 9 11 10 10 11 12 11 11 11 9 10 5 8 10 11 8 3 5 2 2 6 12 16 15 9 11 8 10 8 8 12 14 12 11 11 11 10 10 6 9 6 4 3 9 6 6 8 9 9 9 6 8 6 9 7 5 5 4 4 3 4 5 11 7 6 6 6 6
4 5 5 7 10 9 8 10 11 11 12 2 4 7 9 10 10 10 9 10 9 11 13 14 16 13 11 8 8 9 3 3 3 10 6 5 7 5 6 8 10 15 17 12 11 10 13 14 12 13 13 13 11 9 10 13 11 15 13 13 11 10 8 8 3 3 9 9 9 10 9 9 9 9 7 5 5 3 5 11 9 6 6 6 6 5
11 8 8 8 9 8 7 7 6 8 9 11 8 9 9 10 10 9 8 8 9 10 11 14 15 14 13 7 2 7 5 6 6 7 8 5 7 3 6 8 14 17 5 6 8 11 11 11 12 12 12 12 11 12 12 11 11 13 13 11 13 12 10 11 11 12 11 9 10 10 10 10 11 10 6 8 7 8 12 11 8 7 6 6 6 5
13 10 8 10 9 12 9 9 9 9 9 10 10 9 10 7 5 8 8 10 11 10 9 9 8 8 11 9 3 9 8 7 1 4 3 1 3 6 9 6 7 6 6 5 4 6 7 10 11 11 11 11 12 12 14 12 12 12 13 13 11 10 9 9 9 12 15 14 10 10 9 8 7 9 9 6 7 11 10 8 8 8 7 6 6 6
11 12 12 11 11 12 11 10 8 9 11 12 11 10 11 9 9 8 8 6 9 11 12 5 7 10 6 4 5 5 5 5 6 6 5 2 2 2 3 4 4 1 7 5 6 6 7 8 9 9 10 10 11 12 13 13 11 11 12 14 13 11 12 12 11 11 15 14 13 10 9 8 7 8 7 7 7 10 9 8 8 8 7 7 6 6
8 11 12 13 10 13 14 12 9 7 9 11 11 11 10 9 7 8 8 8 9 8 8 7 6 6 10 1 9 6 5 6 6 4 4 5 4 5 4 3 3 3 8 7 6 7 7 6 8 9 10 10 11 12 12 11 12 13 12 14 15 14 14 14 12 10 14 14 14 11 10 8 7 8 7 7 9 9 9 7 8 7 7 6 6 7
14 9 7 16 9 11 13 13 13 11 9 10 10 10 11 10 6 10 3 6 5 6 4 7 6 4 3 10 8 4 7 7 5 7 4 5 4 4 4 5 1 3 5 6 6 6 7 7 7 8 10 9 9 11 11 11 12 12 12 14 16 17 15 14 14 12 13 15 12 14 12 12 10 7 7 5 9 8 8 9 8 7 7 7 7 7
9 9 4 7 11 11 13 13 13 12 9 6 10 12 11 7 9 5 7 11 5 6 7 3 8 9 3 5 7 5 6 6 3 10 5 5 5 5 5 5 4 4 5 3 3 2 3 4 6 7 9 9 10 10 11 11 11 11 11 12 16 17 16 16 16 16 15 15 16 16 14 14 11 9 7 5 9 8 7 8 8 8 7 8 7 7
7 5 6 8 13 10 11 12 14 15 12 5 8 8 7 8 8 6 6 3 6 9 7 10 11 8 9 3 6 7 1 6 9 6 7 8 10 9 9 9 7 5 3 0 2 2 4 6 7 6 7 7 8 10 10 11 12 12 11 13 16 16 18 18 18 17 16 16 17 15 16 14 12 10 9 6 9 8 7 8 7 8 7 8 8 8
8 8 7 10 10 10 11 7 10 13 15 13 8 1 9 7 9 8 3 8 8 7 6 9 8 9 5 3 2 3 4 5 7 6 4 6 8 8 8 8 9 9 7 5 3 1 5 5 6 5 6 8 8 8 9 9 10 10 11 12 15 17 19 20 18 17 15 14 12 13 14 14 12 9 8 5 12 9 9 9 8 9 8 8 8 8
5 7 6 9 11 8 9 9 10 10 12 16 13 9 7 9 6 6 6 8 7 8 8 8 10 3 2 3 8 6 6 6 4 5 7 6 8 6 6 7 8 8 9 9 8 5 2 5 6 6 7 8 9 9 9 9 9 12 10 9 13 16 17 17 18 17 15 14 13 12 12 13 11 11 11 11 12 10 10 10 10 9 9 9 8 8
5 4 7 1 9 8 10 9 11 9 9 12 12 10 7 9 5 6 2 7 7 6 6 4 7 5 4 5 6 6 6 7 6 7 6 5 5 7 7 7 7 7 7 8 8 8 7 3 4 6 7 8 8 9 8 8 11 11 11 11 16 18 18 19 16 17 16 13 12 13 13 11 10 12 11 14 12 11 10 9 9 9 9 9 8 8
5 6 7 5 6 8 9 10 11 11 11 10 10 11 12 11 11 10 9 8 9 5 3 8 3 4 5 5 1 6 5 5 7 7 6 5 4 5 6 7 8 8 8 8 8 8 8 8 4 5 6 6 6 8 8 9 11 11 14 14 14 15 15 16 16 16 15 13 11 13 11 10 7 7 9 10 12 9 10 10 9 9 9 9 9 9
4 2 6 7 5 10 9 6 3 8 8 10 8 10 13 12 10 10 9 5 8 12 10 11 4 4 3 5 6 4 5 6 8 7 6 5 4 5 6 7 8 9 9 9 10 9 9 10 11 9 7 5 7 7 10 11 12 13 14 15 13 12 13 13 14 14 13 11 9 10 8 7 4 1 9 13 11 10 11 10 10 9 9 8 8 9
5 3 8 8 10 5 13 10 12 10 11 11 9 10 9 10 10 9 7 6 10 4 5 6 7 4 4 6 7 6 6 7 6 8 7 6 5 5 5 6 7 7 7 8 8 9 8 8 10 11 12 11 9 8 10 10 11 11 11 10 8 9 11 11 12 11 11 9 11 9 7 6 7 7 10 13 11 12 11 11 10 9 9 8 8 9
3 5 8 5 3 7 10 6 11 9 10 8 7 4 10 12 11 9 7 2 6 7 6 2 6 1 2 3 7 8 7 8 8 7 8 7 7 7 8 7 7 7 8 8 9 8 9 10 11 10 9 10 9 11 11 8 8 7 5 1 2 6 7 8 9 12 12 11 10 9 9 7 7 14 14 14 12 13 13 11 10 8 9 8 8 9
5 2 1 7 8 6 6 10 7 4 4 8 4 10 12 14 15 10 8 10 10 7 10 9 2 6 4 4 6 7 8 9 8 7 7 8 8 8 8 8 8 8 9 10 10 10 11 10 9 10 10 10 10 10 9 9 8 6 4 8 3 7 7 8 6 9 12 11 10 7 7 7 7 11 13 13 12 13 12 11 10 9 7 8 9 8
3 1 4 4 5 6 2 1 2 2 3 5 8 8 10 10 9 8 4 5 8 4 6 8 7 3 6 5 7 8 8 8 7 8 8 8 9 8 9 8 9 9 9 11 11 10 10 11 12 12 12 11 12 11 9 8 6 6 3 7 7 6 7 8 7 9 11 14 14 10 12 12 11 5 10 11 11 10 10 9 10 8 9 8 9 8
3 5 6 8 11 11 8 3 9 9 5 10 8 3 9 7 9 5 6 5 9 4 5 9 7 9 6 6 6 7 7 7 7 7 8 7 8 8 8 8 10 10 11 11 11 12 12 11 12 13 13 14 12 11 11 10 10 6 7 8 9 6 6 10 12 11 12 15 15 15 14 10 10 7 8 10 11 11 9 10 8 11 9 9 8 8
1 2 6 2 7 14 7 3 4 5 4 4 4 5 8 7 6 6 2 2 5 3 5 5 3 9 8 8 8 9 8 7 7 8 7 7 7 7 7 9 10 10 11 12 12 12 12 13 12 13 14 14 14 14 13 12 12 12 9 7 11 9 9 10 15 14 13 14 14 13 11 9 7 7 8 10 12 11 11 9 11 9 9 8 8 6
2 5 1 3 5 3 11 4 4 4 4 4 1 4 7 6 6 7 6 8 7 6 2 7 11 10 6 6 7 7 7 7 7 6 7 9 9 9 9 10 10 11 11 12 12 12 12 12 12 13 14 14 15 15 14 12 12 11 10 10 2 12 9 10 13 14 12 12 12 11 11 10 8 7 7 9 9 10 10 10 8 8 8 8 7 7
5 1 4 2 2 5 7 1 3 3 3 4 4 7 7 9 5 9 9 13 13 3 5 9 10 6 4 5 6 6 6 6 6 9 10 10 10 10 10 11 11 12 12 12 12 12 12 13 13 14 15 16 16 16 14 13 10 10 11 8 9 8 3 12 14 14 13 12 12 12 11 10 9 8 8 8 8 9 9 9 8 6 7 7 7 7
1 5 5 3 3 5 3 3 2 3 3 4 9 8 10 9 7 8 7 9 11 9 9 3 1 3 4 5 7 7 8 9 10 10 10 10 11 11 12 12 12 12 12 13 13 13 13 13 15 16 17 16 15 15 14 13 10 10 8 7 10 9 9 11 9 11 12 13 14 13 13 11 10 9 8 8 9 10 10 10 9 6 5 6 6 6
2 4 4 6 8 5 6 6 4 5 4 4 8 8 8 6 6 5 8 11 12 12 7 4 6 6 6 5 7 8 9 10 10 10 9 10 11 11 11 12 12 12 13 13 13 14 13 13 14 15 15 14 13 14 15 13 11 10 9 9 9 10 12 11 12 13 13 13 12 13 12 10 10 9 9 8 8 8 9 10 10 9 9 8 5 4
1 3 5 3 4 1 5 6 5 5 6 2 3 5 4 5 7 6 7 9 10 11 6 5 7 7 7 6 7 8 9 10 10 11 11 9 9 10 11 12 12 11 12 13 13 13 13 13 13 14 15 14 11 11 11 12 10 8 8 8 9 11 11 12 12 13 13 12 12 11 11 11 11 10 8 7 8 9 9 10 9 8 7 7 8 9
4 1 2 1 5 3 5 8 4 5 1 4 4 7 5 4 6 5 8 11 11 11 11 10 10 10 9 9 9 10 11 12 13 13 13 12 10 10 10 12 12 12 13 13 14 14 15 14 15 16 15 13 12 10 8 10 10 8 9 10 11 10 12 12 13 14 14 13 12 12 12 12 12 10 9 8 8 9 9 8 7 8 5 5 6 6
3 4 2 3 5 3 4 3 4 2 4 6 4 9 8 2 7 1 6 12 12 10 7 7 7 7 9 9 9 9 10 11 13 15 14 13 12 10 10 10 11 11 12 11 12 13 14 15 15 15 13 10 11 11 11 10 9 10 11 11 13 13 14 14 15 15 14 15 13 12 12 12 12 11 10 9 8 10 9 8 7 7 6 7 6 7
7 5 4 4 2 3 3 1 4 8 8 7 3 8 8 5 6 4 2 7 11 8 8 4 6 6 7 8 8 8 8 8 11 12 12 13 12 11 12 12 11 11 11 11 12 12 11 12 13 13 12 12 11 11 10 9 9 9 11 13 12 13 13 15 16 14 13 14 13 12 11 9 10 10 10 9 9 8 8 8 8 7 5 6 6 6
5 3 2 3 1 4 1 4 5 6 4 5 5 5 5 4 2 2 1 4 11 10 7 4 6 4 5 8 8 8 6 5 9 8 11 11 11 10 11 11 11 11 10 10 10 11 11 11 12 13 13 13 12 11 9 9 9 10 12 12 12 12 12 14 13 12 12 11 10 9 9 10 10 10 8 9 9 8 7 7 6 6 5 5 5 6
6 5 6 6 1 3 6 4 3 2 5 5 7 7 6 3 1 3 3 3 8 9 8 4 4 6 7 6 3 5 4 4 5 5 7 9 9 9 10 10 10 9 9 10 10 11 11 12 13 13 14 14 15 14 11 11 11 11 12 13 12 13 13 12 12 11 11 10 9 9 9 9 10 10 9 8 8 7 6 6 5 6 6 5 6 6
5 5 5 6 7 5 4 2 3 5 5 8 9 8 7 4 2 3 3 4 7 9 9 6 5 6 5 4 6 8 4 6 5 2 7 7 8 8 9 10 9 9 10 10 10 10 11 12 13 14 15 15 14 13 13 11 11 12 11 12 11 12 12 11 10 9 9 8 7 7 7 8 9 9 9 8 7 7 6 5 5 5 5 5 5 5
1 2 4 4 4 3 7 5 6 5 4 11 9 8 4 1 3 2 4 4 5 6 7 6 8 7 7 7 5 6 6 7 5 4 7 8 9 10 10 10 11 11 11 11 10 10 10 11 12 12 12 11 12 12 12 11 11 12 12 11 12 12 10 8 7 6 6 7 8 10 10 9 9 9 8 7 7 6 6 6 5 5 5 5 4 4
2 4 0 2 0 1 2 5 7 5 4 11 9 6 5 4 1 4 3 3 5 6 6 8 9 9 11 11 9 9 7 6 7 8 9 9 10 10 10 11 11 10 10 11 11 10 10 11 12 13 13 12 12 11 10 10 11 11 10 10 11 9 8 8 8 8 8 8 9 9 8 8 7 7 6 7 6 5 5 5 4 4 4 3 4 4
5 5 3 3 4 2 2 5 4 4 6 15 14 2 11 2 4 2 6 8 8 8 9 10 10 10 12 12 10 9 8 8 8 9 8 8 9 9 9 9 10 10 10 10 11 11 10 10 12 12 11 10 11 10 9 10 10 10 9 11 10 8 7 7 7 8 8 8 8 9 9 8 8 7 6 6 6 4 4 4 4 3 3 3 4 4
7 2 4 3 4 3 7 5 5 3 6 10 10 6 7 7 4 4 5 7 7 7 8 8 10 10 11 12 11 10 9 10 10 10 10 8 7 7 7 7 8 7 7 9 9 9 10 10 11 11 11 9 8 9 9 9 9 9 9 10 7 6 6 6 7 7 7 7 7 7 7 7 8 7 6 6 5 5 4 3 3 3 2 1 2 3
8 6 5 7 5 4 5 5 3 1 5 8 9 10 10 10 10 10 9 8 8 8 9 10 12 10 10 12 11 10 9 7 7 7 7 7 7 7 7 6 6 6 6 6 6 7 8 9 10 10 9 9 9 8 8 8 9 9 10 8 8 8 8 8 7 7 7 8 7 6 7 7 6 6 5 5 4 4 3 2 1 2 1 1 1 2
6 12 10 13 15 16 13 9 8 10 11 12 10 9 10 10 10 9 10 11 11 11 10 10 10 11 11 10 9 8 8 7 8 8 8 8 7 6 5 6 5 6 5 5 5 6 7 7 7 9 9 9 10 9 8 8 8 9 8 8 8 7 7 7 8 8 8 7 7 7 7 5 6 6 5 4 4 4 3 2 2 2 2 2 2 2
3 4 7 7 7 3 7 8 13 13 13 14 14 13 13 12 12 11 12 12 12 11 11 10 10 10 9 8 9 9 8 7 7 6 7 7 7 7 7 6 6 6 5 6 4 4 6 6 7 8 8 9 8 8 8 9 9 8 7 7 7 8 8 8 7 7 7 7 6 6 7 8 6 4 5 5 5 5 4 4 4 4 5 5 3 2
10 9 13 12 13 10 10 12 12 12 11 11 10 11 13 13 13 12 11 12 12 11 11 10 10 10 8 9 8 8 8 8 8 6 7 7 7 6 6 5 5 5 7 7 7 6 6 7 8 8 8 7 7 6 6 6 7 7 7 7 8 8 8 8 8 7 7 7 7 6 6 6 3 4 5 5 6 6 6 6 6 6 7 7 7 6
6 4 7 9 11 13 15 13 13 13 13 12 12 13 12 11 12 13 12 12 12 12 11 10 9 10 10 9 8 8 8 8 8 7 7 7 7 8 8 6 5 5 4 5 5 7 8 8 8 8 7 7 6 7 7 7 7 7 6 6 6 6 7 7 7 8 9 8 8 7 6 6 6 5 4 5 6 7 8 7 7 6 7 9 7 7
10 12 11 9 10 8 8 8 7 7 8 10 12 12 12 12 12 12 12 12 11 11 11 11 10 9 9 8 8 8 8 7 7 7 6 5 5 4 4 3 4 6 5 4 4 5 5 6 6 7 7 7 7 6 6 7 6 7 7 6 6 6 5 4 4 5 6 7 7 7 6 6 6 5 5 4 3 7 6 6 7 7 5 6 7 8
7 1 2 6 5 7 7 8 9 11 11 10 10 9 9 9 10 10 10 10 10 10 9 9 9 9 8 7 7 8 7 6 6 6 6 5 5 4 4 3 3 3 3 3 2 3 4 5 4 4 6 5 6 6 7 7 7 6 6 7 6 6 6 7 5 5 5 5 5 5 6 5 5 5 5 4 4 2 5 7 4 6 9 9 7 7
Wind_Direction
171 220 207 216 223 217 218 229 239 244 315 306 313 295 274 272 264 230 354 104 159 266 250 262 256 257 268 269 253 250 198 210 229 231 205 221 232 228 223 227 208 196 210 199 198 171 208 188 192 188 171 169 171 165 153 145 160 168 169 166 168 167 165 161 168 169 169 166 172 184 179 200 206 185 185 186 169 182 178 178 154 180 167 160 171 171
212 227 227 226 232 235 226 217 238 267 22 262 265 266 253 247 250 253 194 142 238 244 254 246 249 255 257 253 253 257 255 197 218 229 221 220 231 231 228 223 224 207 189 197 199 204 181 198 178 177 178 173 183 177 168 153 175 183 180 178 167 175 167 171 172 174 168 176 171 171 189 184 201 181 161 156 260 209 131 337 161 131 191 163 164 181
213 232 235 235 236 244 326 289 229 252 244 248 255 257 259 255 262 243 144 185 219 222 256 252 252 244 234 234 246 244 250 233 211 229 226 217 229 232 228 231 231 226 190 189 198 194 196 187 180 175 192 185 185 178 171 157 180 186 179 185 174 174 169 175 178 175 180 170 174 181 202 191 181 87 34 55 32 343 276 166 232 151 178 166 166 181
226 226 231 237 215 180 215 235 227 230 244 252 235 237 248 257 236 241 219 164 201 235 273 280 270 271 269 254 255 253 243 238 221 219 227 225 225 229 230 232 233 226 215 189 196 188 197 192 184 183 190 190 191 185 174 165 182 181 184 183 182 181 182 180 181 183 177 165 131 146 271 35 54 131 68 345 61 337 172 210 225 161 169 174 184 185
237 345 143 207 151 194 213 213 224 227 231 219 242 253 247 235 239 247 227 196 190 224 247 265 267 262 249 246 243 236 230 241 228 218 222 224 225 225 228 235 237 234 215 183 191 193 205 195 187 182 185 185 194 187 179 163 175 189 190 188 190 192 191 190 183 183 172 161 148 149 149 105 112 136 117 171 146 157 290 232 197 171 173 188 190 182
254 187 143 35 195 211 224 218 212 230 240 227 218 238 251 261 276 271 284 279 249 247 225 231 264 254 243 238 237 233 216 212 225 228 221 221 225 227 224 222 234 234 236 176 187 186 194 194 190 181 184 182 185 186 181 164 175 182 185 183 180 196 196 195 188 184 163 151 154 158 169 158 155 161 164 176 172 177 180 204 196 175 187 181 183 180
247 162 178 210 220 225 221 227 208 209 243 243 223 216 226 249 266 268 262 265 264 261 312 251 246 270 271 265 225 245 260 207 207 226 231 224 222 226 229 224 220 231 229 157 182 182 200 186 195 185 188 185 181 176 168 153 182 178 168 167 167 212 205 192 188 169 153 161 167 170 180 171 163 170 173 171 175 167 186 235 191 200 181 188 175 174
243 230 173 201 222 227 217 222 214 205 227 237 241 125 262 247 245 244 257 258 266 274 196 212 246 273 268 263 245 214 240 239 226 226 231 232 224 224 226 226 224 226 224 188 162 186 186 209 195 193 193 185 180 169 168 173 148 163 139 175 183 205 211 200 189 175 180 169 172 170 179 160 164 170 162 165 170 105 64 41 316 217 185 183 179 176
198 209 204 210 219 220 224 221 214 201 231 246 102 308 256 247 244 252 245 244 252 253 260 235 219 248 255 265 271 230 209 212 242 231 212 218 2 358 339 309 282 260 239 188 159 163 172 210 189 191 193 183 168 170 176 144 172 145 130 213 232 230 211 185 190 188 181 163 157 160 164 129 149 153 134 129 138 132 128 137 232 226 181 174 172 174
196 219 201 227 212 220 229 220 205 188 221 247 255 201 268 275 275 259 252 253 247 247 253 255 247 254 256 263 258 243 227 224 233 254 136 73 64 14 343 331 315 282 248 136 151 179 183 213 191 190 183 165 168 170 157 112 162 140 155 262 254 249 223 164 181 191 159 114 135 155 138 154 148 126 127 150 156 156 180 177 222 201 179 161 161 167
27 121 341 222 218 232 217 222 224 218 229 342 329 241 218 233 237 233 245 262 263 245 242 248 257 253 267 254 253 245 277 320 235 69 353 2 332 313 266 237 267 274 250 165 154 197 179 195 195 177 167 160 167 162 131 170 179 154 159 178 185 208 222 135 160 208 124 164 174 161 151 158 150 157 159 152 125 155 200 211 194 187 168 163 156 157
173 178 203 219 244 234 267 238 206 243 222 222 226 230 236 224 225 237 235 230 247 251 251 247 249 244 255 236 278 30 104 49 342 143 164 185 222 237 263 252 239 238 207 82 146 171 168 156 167 169 169 163 153 143 165 178 176 160 168 177 191 189 175 157 169 161 149 156 164 164 156 161 164 156 163 160 162 190 209 194 181 175 168 162 155 159
232 209 213 207 203 248 187 239 194 210 217 224 225 232 235 228 212 224 215 226 227 242 249 269 260 250 239 267 186 200 132 151 147 18 75 134 177 201 233 207 242 219 122 162 172 168 175 169 164 170 160 152 144 169 184 175 178 171 164 181 189 187 167 162 169 162 155 151 150 168 163 164 159 157 163 168 181 204 198 180 177 171 172 163 160 163
223 221 204 207 195 204 227 213 192 194 203 214 218 219 228 228 224 232 236 243 241 226 248 227 253 257 307 258 36 99 75 59 83 72 35 61 322 92 256 211 161 200 128 166 155 166 191 177 169 155 153 162 167 188 195 177 179 181 170 178 186 177 167 159 168 168 151 149 160 165 161 161 162 156 168 162 215 211 191 175 170 173 170 163 163 156
223 210 211 207 208 177 215 231 227 224 193 214 225 228 231 237 229 230 236 249 249 265 214 204 240 252 247 74 113 106 102 101 90 64 53 29 16 31 2 327 113 224 156 168 173 192 196 193 174 156 160 177 180 197 192 185 181 184 173 178 179 169 163 160 153 160 164 160 162 167 155 162 163 164 170 181 215 207 180 168 168 177 172 169 167 164
244 246 213 199 226 184 215 219 247 243 236 211 217 232 241 235 240 269 318 310 340 292 249 194 239 236 221 156 134 144 125 110 112 105 65 52 26 70 44 24 12 196 139 145 191 195 200 200 201 175 180 190 194 189 188 187 187 183 180 181 168 161 159 160 159 171 168 159 164 161 162 167 171 182 165 187 220 192 179 171 172 179 171 164 164 163
220 232 190 186 211 221 215 217 220 242 234 197 211 217 227 230 246 239 244 256 241 267 264 294 230 224 278 152 97 170 145 96 90 57 30 54 56 69 63 65 50 47 112 170 182 220 245 229 227 211 198 191 188 194 195 196 190 188 178 175 164 162 164 159 166 168 169 165 165 163 170 173 176 177 157 182 229 178 183 165 173 172 169 155 160 157
273 262 198 196 198 214 237 217 225 210 245 259 236 225 232 239 272 257 259 229 226 244 242 242 247 243 230 182 321 350 161 102 74 96 50 56 47 44 42 42 34 13 1 192 123 179 228 222 201 185 177 182 185 198 204 203 197 194 180 178 166 166 168 168 167 167 167 170 170 166 169 174 176 165 153 165 228 172 169 169 166 169 162 157 155 150
229 237 218 206 227 203 208 248 232 230 218 240 235 317 245 190 216 225 251 237 245 236 254 235 268 281 333 67 274 57 349 49 92 80 92 65 46 30 22 25 31 21 19 2 325 161 190 182 163 168 192 201 195 202 209 209 206 196 180 179 174 175 175 169 166 165 168 171 172 172 170 170 167 143 115 161 224 173 172 173 165 162 158 154 152 155
192 250 214 200 222 183 199 206 225 213 207 233 250 234 246 288 250 234 207 246 247 253 240 238 227 185 121 54 130 158 120 91 110 107 67 55 34 34 13 12 20 22 15 13 13 360 306 161 180 192 193 201 207 213 214 208 208 209 180 170 181 183 179 169 164 163 167 172 170 169 167 166 159 144 160 192 199 174 170 173 165 159 154 152 151 152
247 225 247 223 300 214 213 194 227 218 206 199 221 238 216 226 253 265 251 243 251 265 270 265 245 100 33 16 356 82 75 68 69 83 69 49 26 15 15 13 6 12 14 10 2 4 357 284 198 191 197 206 214 215 217 213 213 211 191 187 186 182 178 171 159 160 165 167 164 160 157 158 156 161 182 193 175 175 165 165 159 156 156 155 160 159
243 213 241 209 244 255 220 220 238 228 221 216 217 227 230 221 216 227 229 190 224 231 235 252 246 46 77 59 36 53 64 72 74 89 86 74 59 40 19 5 6 2 4 5 4 3 351 352 274 201 198 220 212 214 217 218 213 207 203 195 183 178 177 169 161 166 158 157 153 151 148 145 152 175 184 168 174 161 161 158 163 159 161 168 160 163
296 351 280 237 190 242 260 303 278 265 272 268 246 228 215 231 238 243 250 228 248 223 255 270 246 140 86 93 76 77 64 65 64 78 85 92 64 47 33 16 20 19 7 4 5 1 1 0 8 1 344 280 242 216 216 222 218 214 205 199 183 181 172 171 167 163 155 146 130 141 133 125 109 135 186 172 171 165 163 166 164 166 162 163 154 166
310 242 238 245 232 292 270 311 294 263 256 243 248 256 254 240 239 244 213 272 260 277 289 316 269 144 141 81 93 103 87 66 47 49 68 63 49 49 49 30 27 29 27 20 11 9 359 7 17 13 3 7 355 279 241 227 223 219 213 199 186 189 173 171 161 149 145 129 128 113 114 121 155 197 199 170 170 172 166 167 167 162 162 160 160 160
250 230 253 263 297 233 225 209 253 276 240 247 270 319 332 288 259 257 263 92 272 238 235 136 283 94 43 115 90 84 75 67 54 52 52 59 53 48 45 43 41 41 38 26 16 9 14 16 18 16 6 3 359 1 346 313 273 277 223 37 286 158 139 162 161 151 137 129 123 138 151 159 185 200 184 173 170 172 164 166 162 164 162 157 163 159
267 360 13 247 242 232 238 224 226 223 301 334 327 1 343 311 298 265 244 226 243 250 240 233 209 118 148 91 78 84 83 71 54 47 50 47 40 41 40 37 37 36 31 24 18 18 21 21 16 16 10 360 5 3 352 355 344 259 237 204 177 141 165 202 172 131 125 118 115 116 101 129 215 209 173 168 169 166 162 163 158 160 158 164 164 157
261 200 224 248 280 270 341 203 85 266 267 316 326 24 306 282 298 311 327 276 259 316 261 92 109 130 48 53 51 55 47 58 49 39 38 39 35 37 41 39 37 35 30 27 23 18 20 19 18 18 12 7 4 360 349 348 351 346 293 135 139 146 167 187 170 142 146 137 135 130 149 170 166 224 164 164 165 160 160 156 150 165 166 185 157 168
308 278 252 264 254 254 300 91 166 190 202 256 284 291 257 304 327 302 265 280 329 322 237 76 111 125 111 71 45 51 59 58 52 38 39 37 36 37 37 40 35 31 27 26 26 23 20 18 18 15 14 11 5 357 351 350 350 16 117 111 139 171 168 149 148 155 153 143 143 151 152 154 137 137 135 156 158 160 150 152 173 175 175 165 161 169
82 273 269 247 282 313 298 262 179 186 224 244 256 304 304 314 314 326 353 307 315 274 287 58 89 107 104 76 69 55 56 61 49 42 36 36 34 38 41 39 36 32 28 26 24 22 21 23 17 15 17 12 5 2 356 357 358 358 353 158 164 177 170 155 153 151 149 143 142 143 125 114 111 116 131 154 163 161 160 163 177 180 166 165 159 173
251 225 215 273 275 289 272 237 227 217 184 211 5 340 348 342 321 2 5 341 355 331 22 85 88 78 64 68 54 50 45 55 56 51 46 39 31 29 37 39 37 35 33 29 26 24 26 24 21 21 21 17 11 1 0 360 2 355 349 346 342 170 162 161 140 141 143 140 132 128 125 116 103 100 112 125 145 158 158 167 171 169 160 161 158 165
249 240 138 330 336 282 256 181 245 229 160 131 57 26 2 338 15 28 19 12 351 12 58 124 116 93 68 59 66 62 59 60 58 51 46 41 36 36 39 40 38 37 35 33 29 29 30 29 26 25 25 20 15 10 3 1 353 346 339 353 1 17 153 158 144 138 141 134 131 130 127 127 125 122 125 116 122 126 142 157 157 152 154 154 153 148
310 263 233 183 238 229 262 257 249 242 208 134 62 36 12 14 17 12 34 19 7 355 338 267 106 109 115 97 79 66 62 60 57 53 49 40 39 42 46 44 40 37 36 34 33 30 29 31 31 29 27 21 18 14 8 359 352 346 324 7 30 18 14 46 80 110 127 140 131 119 127 125 127 125 121 115 112 107 97 85 86 104 123 127 132 136
231 311 284 251 238 224 194 220 193 235 242 207 45 16 356 25 15 26 55 34 23 347 4 40 65 86 115 111 92 74 69 60 51 46 49 51 46 46 48 45 43 39 35 35 35 34 35 38 38 36 31 30 23 20 13 2 359 338 342 35 42 50 40 48 63 66 59 60 82 106 107 109 116 101 95 91 88 88 86 89 90 85 80 70 61 80
235 242 258 48 276 241 186 184 197 224 226 78 46 21 1 26 20 24 38 28 22 8 359 41 77 97 115 103 92 83 68 58 51 43 38 43 46 49 50 47 43 42 44 45 43 42 43 43 43 38 32 22 13 16 15 15 2 341 351 20 46 53 55 61 59 66 66 71 74 87 94 92 80 73 63 67 79 81 82 83 77 66 62 72 75 74
250 236 260 20 284 269 194 187 206 240 110 120 91 37 30 55 26 51 61 41 29 16 13 54 62 67 72 85 91 91 83 72 55 50 41 38 43 47 46 44 41 40 45 43 43 44 45 47 46 42 33 24 16 7 17 19 4 6 26 32 45 49 59 66 75 70 71 70 61 67 78 76 83 75 68 61 65 68 68 66 67 65 47 40 50 64
245 241 250 221 236 234 187 152 209 107 138 188 85 33 15 56 10 262 97 44 30 20 7 62 59 77 89 99 104 100 93 80 64 48 40 39 40 45 49 48 44 42 42 37 40 40 42 43 41 38 31 23 26 24 21 15 360 16 26 34 45 56 61 64 62 66 66 64 59 60 63 69 71 71 65 56 54 67 68 57 47 55 56 64 60 49
264 297 272 285 30 265 271 146 85 131 115 47 38 16 21 13 346 13 42 55 26 19 5 65 95 103 105 106 123 125 114 98 64 43 31 28 34 47 55 57 53 50 49 46 44 46 41 37 34 25 23 26 28 30 26 15 13 22 30 37 35 36 39 55 58 55 52 55 51 54 58 60 67 68 67 64 63 62 67 74 66 56 49 67 66 71
276 270 20 279 239 245 234 142 143 193 143 79 36 26 23 10 325 266 241 118 33 24 24 54 87 95 119 124 131 144 148 72 53 37 22 28 29 44 52 55 54 52 52 53 47 43 37 34 34 34 29 27 30 32 27 16 20 24 33 35 36 38 35 35 35 39 44 47 44 44 47 53 57 62 62 67 72 72 75 72 69 65 50 66 75 74
236 245 216 234 280 313 240 233 240 139 70 24 15 6 7 352 326 186 239 120 25 19 27 54 112 132 131 133 96 342 260 83 75 43 14 27 33 40 60 59 62 64 62 55 47 41 40 37 33 34 35 31 28 21 27 30 27 30 35 32 32 39 39 36 34 32 37 40 41 39 38 45 54 59 52 47 52 52 59 59 70 87 90 82 71 75
227 223 222 238 237 251 337 295 75 47 70 9 358 5 358 336 221 235 236 89 5 22 17 36 96 128 139 79 56 34 26 124 98 64 331 27 53 44 49 55 53 49 49 53 55 51 41 36 37 33 26 27 28 23 25 35 40 41 36 31 30 33 33 34 35 32 35 39 42 51 54 53 57 59 58 55 51 48 50 54 60 70 80 76 79 74
191 226 228 267 293 106 104 109 118 108 62 2 359 356 17 337 225 267 4 11 1 24 25 27 40 37 52 55 55 81 27 50 83 59 34 44 56 54 51 53 56 51 50 48 50 54 57 49 38 37 36 25 26 27 26 29 39 43 44 41 38 32 26 26 38 46 44 41 43 44 50 52 56 56 53 55 56 54 57 54 52 52 66 70 66 72
45 335 221 184 277 261 247 107 90 82 31 347 343 343 10 277 328 38 48 34 33 45 40 50 63 71 80 73 77 82 81 76 87 83 80 59 52 47 52 51 48 48 46 49 44 46 55 55 52 39 30 34 32 29 28 31 43 48 48 53 55 51 42 38 37 43 52 58 55 53 51 51 58 70 64 52 43 49 69 75 74 73 86 105 110 118
13 314 41 37 355 199 170 118 106 67 32 359 327 265 15 5 62 85 94 66 58 63 67 74 82 83 86 85 76 81 83 81 82 89 86 81 77 68 61 51 41 34 31 31 36 35 46 56 56 58 50 26 29 33 34 36 45 48 48 52 52 56 59 58 58 51 49 54 59 59 54 47 47 51 61 76 78 64 61 75 84 83 100 132 147 152
357 308 74 62 9 10 55 55 55 16 325 355 23 57 44 62 77 101 104 77 74 74 78 80 78 83 84 93 97 94 92 89 82 85 91 92 96 93 81 77 72 59 49 49 40 30 31 44 49 52 48 51 44 39 35 37 41 40 48 51 50 49 45 45 54 56 54 54 54 58 60 61 55 45 44 50 64 70 50 52 76 88 86 120 164 147
1 57 26 71 15 43 67 76 49 32 44 47 50 71 70 65 67 67 79 89 91 87 93 87 83 80 87 93 94 98 103 105 105 104 101 102 97 90 89 92 90 83 74 72 67 55 44 44 44 44 47 43 48 54 55 50 38 34 38 34 38 44 43 41 43 50 54 52 55 58 62 62 62 62 57 52 46 64 85 83 100 104 108 148 146 152
112 96 101 86 86 89 83 87 95 88 78 76 74 74 76 75 75 85 91 94 94 99 97 99 101 93 89 90 95 95 98 109 106 103 98 99 104 115 127 118 122 121 107 93 85 78 77 71 60 54 49 40 34 35 36 49 55 45 32 30 33 36 42 47 46 42 48 58 55 46 48 52 73 69 52 71 83 73 50 53 76 94 132 132 106 89
124 97 82 96 140 108 74 82 81 87 92 87 83 81 81 80 86 93 94 96 104 105 104 103 104 104 100 99 97 106 110 111 120 128 121 114 104 93 81 75 68 69 73 60 91 118 82 66 64 60 56 57 48 38 32 33 36 39 37 37 37 39 36 32 40 54 47 41 46 60 61 44 13 43 65 33 42 51 44 37 42 41 32 27 33 64
94 95 82 75 79 83 107 102 94 87 82 87 87 88 86 87 91 94 103 109 111 111 104 101 101 101 103 100 101 92 81 68 62 50 52 50 56 78 86 87 81 68 47 27 21 22 38 42 48 51 48 47 49 51 47 40 43 46 37 35 35 34 37 39 28 30 36 46 51 37 36 61 351 336 71 63 47 38 29 30 31 51 42 22 12 3
114 162 88 103 96 102 107 107 105 97 89 88 87 83 91 100 102 104 108 111 113 113 113 111 109 108 108 108 109 101 91 87 85 78 65 54 49 32 21 23 56 80 74 66 45 25 25 24 26 24 28 34 27 33 29 32 34 35 47 47 54 42 38 37 36 36 35 30 26 28 27 34 38 37 33 72 92 68 48 36 26 34 66 49 28 26
112 102 117 114 108 110 113 117 126 109 101 90 84 86 91 98 106 108 112 113 118 119 121 118 114 112 114 121 116 115 121 117 107 106 103 97 93 104 85 50 20 20 39 43 45 44 46 32 22 19 11 14 6 10 19 15 27 25 24 30 30 31 33 44 59 57 55 45 36 16 11 27 26 27 37 27 68 114 90 30 39 37 41 77 81 68
71 64 205 109 108 101 95 92 88 94 98 92 97 97 93 92 95 97 100 106 109 111 109 112 116 121 119 111 106 102 94 91 88 82 80 75 64 59 74 70 47 76 69 42 27 50 44 41 33 8 11 4 357 360 5 360 2 10 17 18 13 21 8 12 9 43 52 54 50 34 4 34 30 20 19 29 15 31 136 138 106 90 101 110 131 120